This demonstration page uses our WeatherBlox Daily Observations layout. Learn more.

39.29038, -76.61219

Hourly Observations for July 15, 2017

Temp ( °F °C ) Dew Point ( °F °C ) Humidity (%) Winds ( mph kmh ) Pressure ( in mb ) Visibility ( mi km ) Precip ( " mm )
12:54 am 00:54 undefined 77 25 72 22.2 85 85 undefined N/A 29.94 1014 N/A 0 0
1:54 am 01:54 undefined 77 25 72 22.2 85 85 undefined N/A 29.91 1013 N/A 0 0
2:54 am 02:54 undefined 77 25 72 22.2 85 85 undefined N/A 29.91 1013 N/A 0 0
3:54 am 03:54 undefined 77 25 73 22.8 88 88 undefined N/A 29.91 1013 N/A 0 0
4:54 am 04:54 undefined 77 25 73 22.8 88 88 undefined N/A 29.91 1013 N/A 0 0
5:54 am 05:54 undefined 77 25 73 22.8 88 88 undefined N/A 29.91 1013 N/A 0 0
6:54 am 06:54 undefined 77 25 73 22.8 88 88 undefined N/A 29.91 1013 N/A 0 0
7:54 am 07:54 undefined 80 26.7 73 22.8 79 79 undefined N/A 29.94 1014 N/A 0 0
8:54 am 08:54 undefined 80 26.7 72 22.2 76 76 undefined N/A 29.94 1014 N/A 0 0
9:54 am 09:54 undefined 83 28.3 72 22.2 70 70 undefined N/A 29.94 1014 N/A 0 0
10:54 am 10:54 undefined 84 28.9 71 21.7 65 65 undefined N/A 29.94 1014 N/A 0 0
11:54 am 11:54 undefined 84 28.9 68 20 59 59 undefined N/A 29.94 1014 N/A 0 0
12:54 pm 12:54 undefined 86 30 65 18.3 49 49 undefined N/A 29.94 1014 N/A 0 0
1:54 pm 13:54 undefined 87 30.6 63 17.2 45 45 undefined N/A 29.94 1014 N/A 0 0
2:54 pm 14:54 undefined 88 31.1 60 15.6 39 39 undefined N/A 29.91 1013 N/A 0 0
3:54 pm 15:54 undefined 89 31.7 60 15.6 38 38 undefined N/A 29.91 1013 N/A 0 0
4:54 pm 16:54 undefined 90 32.2 59 15 35 35 undefined N/A 29.91 1013 N/A 0 0
5:54 pm 17:54 undefined 88 31.1 59 15 38 38 undefined N/A 29.88 1012 N/A 0 0
6:54 pm 18:54 undefined 86 30 61 16.1 43 43 undefined N/A 29.88 1012 N/A 0 0
7:54 pm 19:54 undefined 85 29.4 62 16.7 46 46 undefined N/A 29.91 1013 N/A 0 0
8:54 pm 20:54 undefined 83 28.3 62 16.7 49 49 undefined N/A 29.91 1013 N/A 0 0
9:54 pm 21:54 undefined 82 27.8 62 16.7 51 51 undefined N/A 29.94 1014 N/A 0 0
10:54 pm 22:54 undefined 80 26.7 62 16.7 54 54 undefined N/A 29.94 1014 N/A 0 0
11:54 pm 23:54 undefined 79 26.1 62 16.7 56 56 undefined N/A 29.97 1015 N/A 0 0

Powered by AerisWeather